This is the latest recevied weather packets stored in our database for station/object IZ1UQG-N2. If no packets are shown the sender has not sent any weather packets the latest 10 day(s).
| Time | Temp. | Humidity | Pressure | Rain* | Wind** | Luminosity | Snow |
|---|---|---|---|---|---|---|---|
| 1787896562 | 22.78° C | 91% | 1014.6 hPa | 0 mm | - | 9 W/m² | - |
| 1787896504 | 22.78° C | 91% | 1014.5 hPa | 0 mm | - | 11 W/m² | - |
| 1787896442 | 22.78° C | 91% | 1014.5 hPa | 0 mm | - | 11 W/m² | - |
| 1787896384 | 22.78° C | 91% | 1014.5 hPa | 0 mm | - | 9 W/m² | - |
| 1787896323 | 22.78° C | 91% | 1014.6 hPa | 0 mm | - | 7 W/m² | - |
| 1787896263 | 22.78° C | 91% | 1014.6 hPa | 0 mm | - | 7 W/m² | - |
| 1787896203 | 22.78° C | 90% | 1014.7 hPa | 0 mm | - | 9 W/m² | - |
| 1787896143 | 22.78° C | 90% | 1014.8 hPa | 0 mm | - | 9 W/m² | - |
| 1787896083 | 22.78° C | 90% | 1014.8 hPa | 0 mm | - | 7 W/m² | - |
| 1787896023 | 22.78° C | 90% | 1014.7 hPa | 0 mm | - | 5 W/m² | - |
| 1787895962 | 22.78° C | 91% | 1014.7 hPa | 0 mm | - | 5 W/m² | - |
| 1787895904 | 22.78° C | 91% | 1014.8 hPa | 0 mm | - | 5 W/m² | - |
| 1787895843 | 22.78° C | 90% | 1014.8 hPa | 0 mm | - | 5 W/m² | - |
| 1787895782 | 22.78° C | 91% | 1014.6 hPa | 0 mm | - | 5 W/m² | - |
| 1787895722 | 22.78° C | 91% | 1014.7 hPa | 0 mm | - | 5 W/m² | - |
| 1787895663 | 22.78° C | 91% | 1014.5 hPa | 0 mm | - | 5 W/m² | - |
| 1787895603 | 22.78° C | 91% | 1014.5 hPa | 0 mm | - | 7 W/m² | - |
| 1787895542 | 22.78° C | 91% | 1014.5 hPa | 0 mm | - | 9 W/m² | - |
| 1787895483 | 22.78° C | 90% | 1014.6 hPa | 0 mm | - | 11 W/m² | - |
| 1787895423 | 22.78° C | 91% | 1014.7 hPa | 0 mm | - | 12 W/m² | - |
| 1787895363 | 22.78° C | 91% | 1014.8 hPa | 0 mm | - | 18 W/m² | - |
| 1787895303 | 22.78° C | 91% | 1014.9 hPa | 0 mm | - | 23 W/m² | - |
| 1787895243 | 22.78° C | 91% | 1015 hPa | 0 mm | - | 25 W/m² | - |
| 1787895183 | 22.22° C | 91% | 1015.1 hPa | 0 mm | - | 25 W/m² | - |
| 1787895123 | 22.22° C | 91% | 1015 hPa | 0 mm | - | 26 W/m² | - |
* Rain latest hour (hover to see other rain measurements)
** Current wind speed in m/s (hover to see current wind gust speed)